STARLINK-2567, 48276

Orbit data source: Space-Track

STARLINK-2567, 48276 is a payload satellite owned by SpaceX/Seattle (US) in LEO that was launched on Thu, 29 Apr 2021 UTC via an FALCON 9 launch vehicle from the Air Force Eastern Test Range (AFETR). Payload-class satellites include a variety of spacecraft equipped with specific instruments for various scientific and technological missions. These include communications satellites like Starlink; space stations such as the ISS; scientific satellites like the Hubble; Earth observation satellites from companies like Planet Labs, Umbra, and HawkEye 360; GPS; miniature CubeSats for education and research; and military/defense satellites.

Loading next visibility...
Identifier
48276, 2021-036A
Orbit
LEO
Country
Flag of USUS
Related business
Manufacturer
SpaceX/Seattle
Mission
Operational Commercial Communications
Bus & Motor
STARLINK, Unknown motor
Mass
260 kg wet, ~248 kg dry
Launch date (UTC)
2021-04-29 (5 years ago)
Launch vehicle
FALCON 9
Launch site
Air Force Eastern Test Range (AFETR)
Object type
Payload
Rocket body
Debris
Shape & HBR
Box + 1 Pan, 10.1 m
Radar Cross Section
13.562 m², Large (>1 m²)

Expand to show TLE details & history
Last TLE update: 8 hours ago

TLE from 8 hours ago
0 STARLINK-2567
1 48276U 21036A   26036.42901642  .00001605  00000-0  12663-3 0  9997
2 48276  53.0565 191.4428 0001316  85.2179 274.8960 15.06391686263940
Epoch: 2026-02-05T10:17Z
TLE epoch observation values (Epoch: 2026-02-05T10:17:47.018Z)
Latitude
-0.00005°
Longitude
-98.58452°
Altitude
548.039 km
Speed
7.589 km/s
True Right ascension
12h 45m 46s
True Declination
0° 00' 00"
Sunlit
Object was in full shadow at epoch
Visualization orbit readout
Latitude
Unknown
Longitude
Unknown
Altitude
Unknown
Speed
Unknown
Apparent Right ascension
Unknown
Apparent Declination
Unknown
Sunlit
N/A
Visualization observer readout
Local Sidereal Time
20:02:01
Azimuth
Unknown
Elevation
Unknown
Doppler factor
Unknown
Orbital elements
Apogee altitude
548.419 km
Perigee altitude
546.596 km
Semi-major axis
6,925.644 km
Eccentricity
0.00013
Inclination
53.0565°
RAAN
191.4428°
Arg. of periapsis
85.2179°
True anomaly
274.88097°
Mean anomaly
274.896°
Eccentric anomaly
274.88849°
Mean motion
3.76576 °/min
Orbital period
95.6 mins
BSTAR
0.00012663
Loading maneuver chart data...
Computing Atmospheric mass density...
Loading historical data...
Loading historical data...
Loading historical data...
Loading historical data...
Loading historical data...
Loading historical data...
Loading historical data...

Documentation

Showing up to 5 results
|